Miscellaneous Local Product
Issued by NWS Hastings, NE

Home | Current Version | Previous Version | Text Only | Print | Product List | Glossary On
Versions: 1 2 3 4 5 6 7 8 9 10 11 12 13 14 15 16 17 18 19 20 21 22 23 24 25 26 27 28 29 30 31 32 33 34 35 36 37 38 39 40 41 42 43 44 45 46 47 48 49 50
000
AXUS43 KGID 191602
MISGRI

GID CWA HOURLY WEATHER ROUNDUP
NATIONAL WEATHER SERVICE HASTINGS NE
1000 AM CST THU JAN 19 2017

NOTE: "FAIR" INDICATES FEW OR NO CLOUDS BELOW 12,000 FEET WITH NO
SIGNIFICANT WEATHER AND/OR OBSTRUCTIONS TO VISIBILITY.

...SOUTH CENTRAL NEBRASKA...

CITY           SKY/WX    TMP DP  RH WIND       PRES   REMARKS
GRAND ISLAND   FOG       37  37 100 S7        29.69F VSB 1   WCI  32
HASTINGS       FOG       38  37  97 S7        29.70S VSB 1/4 WCI  33
KEARNEY        CLOUDY    37  36  93 SE9       29.67S VSB<1/4 WCI  31
ORD            FOG       37  35  92 SE5       29.65S VSB 1/4 WCI  33
YORK           FOG       39  39 100 SE8       29.72S VSB 1/4 WCI  34
AURORA         FOG       37  37 100 SE7       29.70S VSB 1/4 WCI  32
LEXINGTON      FOG       38  37  96 CALM      29.64S VSB 1/4
HOLDREGE       FOG       40  39  98 SE7       29.66S VSB 1/2 WCI  35
HEBRON         CLOUDY    41  40  98 SE5       29.73S FOG

...NEBRASKA PANHANDLE...

CITY           SKY/WX    TMP DP  RH WIND       PRES   REMARKS
CHADRON        CLOUDY    25  16  68 W5        29.56S WCI  19
ALLIANCE       CLOUDY    27  22  81 CALM      29.57S
SCOTTSBLUFF    CLOUDY    32  24  72 CALM      29.59S
SIDNEY         CLOUDY    33  24  69 W6        29.60S WCI  28

...WESTERN AND NORTH CENTRAL NEBRASKA...

CITY           SKY/WX    TMP DP  RH WIND       PRES   REMARKS
VALENTINE      SUNNY     34  25  69 SW9       29.57S WCI  27
AINSWORTH      FOG       34  34 100 S10G17    29.58S VSB 1/2 WCI  26
ONEILL         CLOUDY    39  39  99 S14       29.64F FOG     WCI  31
BROKEN BOW     FOG       39  38  96 S10       29.63F VSB 1   WCI  32
IMPERIAL       SUNNY     29  23  78 CALM      29.63R
NORTH PLATTE   FOG       33  33 100 CALM      29.64R VSB 1/4
MCCOOK         FOG       36  36 100 CALM      29.64R VSB 1/4

...EASTERN NEBRASKA...

CITY           SKY/WX    TMP DP  RH WIND       PRES   REMARKS
NORFOLK        FOG       36  35  96 SE9       29.70F VSB 3/4 WCI  29
SO SIOUX CITY  CLOUDY    36  34  92 SE8       29.77S FOG     WCI  30
TEKAMAH        CLOUDY    34  33  96 CALM      29.78S FOG
COLUMBUS       CLOUDY    37  36  93 SE6       29.73S WCI  33
ALBION         FOG       36  35  97 SE6       29.70R VSB 1/4 WCI  31
OMAHA EPPLEY   CLOUDY    37  34  89 SE3       29.79S FOG
OFFUTT AFB     CLOUDY    38  38 100 E3        29.79R
MILLARD        FOG       38  37  96 SE3       29.79S VSB 1
LINCOLN        FOG       37  37 100 E6        29.77S VSB 1/2 WCI  32
NEBRASKA CITY  FOG       37  37 100 S3        29.79  VSB<1/4
BEATRICE       FOG       40  40 100 SE6       29.76S VSB 1/2
FALLS CITY     FOG       40  40 100 CALM      29.80R VSB<1/4

...NORTHERN KANSAS...

CITY           SKY/WX    TMP DP  RH WIND       PRES   REMARKS
GOODLAND       FOG       28  28 100 W6        29.61R VSB 1/4 WCI  22
HILL CITY      CLOUDY    43  43 100 SE5       29.65F FOG
NORTON         FOG       39  37  93 SE6       29.63F VSB 1/2 WCI  35
PHILLIPSBURG   FOG       43  43 100 E6        29.67F VSB 1/2
SMITH CENTER   FOG       39  39 100 E6        29.70S VSB 1/2 WCI  35
HAYS           CLOUDY    45  42  89 SE12      29.66F
RUSSELL        CLOUDY    44  43  96 S9        29.66S FOG
CONCORDIA      CLOUDY    43  43 100 SE7       29.72S
SALINA         CLOUDY    45  43  93 SE9       29.73F FOG
TOPEKA         CLOUDY    46  43  89 SE5       29.78F FOG



USA.gov is the U.S. government's official web portal to all federal, state and local government web resources and services.